一网星座-0348星 (ONEWEB-0348 )

导读

ONEWEB-0348是英国OneWeb星座的低轨通信卫星,于2021年9月14日发射,归属英国主导的OneWeb项目,项目由英国政府与印度巴帝全球等投资支持。该卫星重量约150千克,运行在1200公里左右的近地轨道,依托Ku频段提供通信服务,是OneWeb全球低轨互联网星座的组成部分,旨在为全球偏远及基础设施落后区域提供低成本宽带互联网接入。

基本信息
目录编号:
49213
目录名称:
ONEWEB-0348
国际标识:
2021-083AD
轨道中心:
EARTH
卫星名称:
一网星座-0348星
卫星全名:
一网星座-0348星 (ONEWEB-0348 )
卫星状态:
在轨 (已飞行1734 天)
发射日期:
2021-09-14 UTC
国别 :
英国 (GB)
星等 :
--
轨道信息
数据来源 国际轨道数据 AOE轨道数据
星历时间 2026-06-14T04:32:35+0800
15小时前
查看轨道信息
2026-06-11T04:00:00+0800
3天前
查看轨道信息
半长轴 7559.916km 7559.917km
偏心率 0.0002481 0.0002518
轨道倾角 87.919° 87.919°
近地点辐角 98.740° 103.568°
升交点赤经 275.104° 275.706°
平近点角 261.402° 292.929°
近地点 1179.903km 1179.876km
远地点 1183.655km 1183.684km
周期 109.027分钟 109.027分钟
每日圈数 13.207704 13.207703
详细信息
平衡模式:
三轴稳定
覆盖范围:
全球
运营商:
一网卫星公司
运营商所在国:
英国
制造商(研发单位):
一网卫星公司
制造商所在国:
英国
使用方式:
暂无
卫星简介
OneWeb卫星网络由648颗重约125公斤的微型卫星组成,运行在1200公里的轨道上。 每颗卫星都能够提供至少每秒8千兆位的吞吐量,以使用其高吞吐量的Ku频段有效载荷为家庭和移动平台提供互联网接入。该卫星仍在工作。
2D轨道图
3D轨道图
轨道高度分析图
轨道倾角分析图
轨道综合分析图
查看轨道综合分析图